sat.trackr.live / text

‹ back to catalog

STARLINK-11210 [DTC]

NORAD 60116 · 2024-118D

PAYLOAD ACTIVE UNKNOWN

§ Identity

Operator
Country
US
Launch date
2024-06-24
Launch site
AFWTR
Launch vehicle
Mass (kg)
RCS (m²)

Purposes: comms

External: N2YO · Heavens-Above · Gunter

§ Orbital elements

Epoch: 2026-05-25T04:06:32.467104Z

Period
91.74 min
Inclination
53.1594°
Eccentricity
0.0000999
Mean motion
15.69708978 rev/d
Perigee alt
359.1 km
Apogee alt
360.4 km
Semi-major
6,737.9 km
B*
8.7274e-6
RAAN
204.3794°
Arg perigee
82.8765°
Mean anomaly
277.2366°
Rev number
11,000

§ Raw data

STARLINK-11210 [DTC]1 60116U 24118D   26145.17120911  .00000469  00000+0  87274-5 0  99912 60116  53.1594 204.3794 0000999  82.8765 277.2366 15.69708978110000

JSON: /api/v1/satellites/60116 · /tle

For live sub-satellite position, see the globe view (requires WebGL).

§ Visibility from observer

Set your observer location to see the next 7 days of passes ≥ 10°. The values pass through the URL so the page stays shareable.

No JS? Fill the form by hand. The geolocation button needs JavaScript.